Houlton, ME

9:19 PM EDT on September 29, 2016 (GMT -0400)
Houlton International

Weather History for KHUL - August, 2014

Change the Weather History Date:

Monday, August 18, 2014

  Actual Average Record
Temperature  
Mean Temperature 64 °F 64 °F  
Max Temperature 73 °F 76 °F 92 °F (1940)
Min Temperature 54 °F 52 °F 39 °F (1985)
Degree Days  
Heating Degree Days 1 3  
Month to date heating degree days 28 42  
Since 1 June heating degree days 194 283  
Since 1 July heating degree days 65 102  
Cooling Degree Days 0 2  
Month to date cooling degree days 24 38  
Year to date cooling degree days 180 158  
Since 1 June cooling degree days 179 154  
Growing Degree Days 12 (Base 50)    
Moisture  
Dew Point 55 °F    
Average Humidity 77    
Maximum Humidity 100    
Minimum Humidity 53    
Precipitation  
Precipitation T in 0.12 in 1.90 in (1958)
Month to date precipitation 2.21 2.28  
Year to date precipitation 27.31 24.22  
Sea Level Pressure  
Sea Level Pressure 29.71 in    
Wind  
Wind Speed 5 mph (NNW)    
Max Wind Speed 16 mph    
Max Gust Speed 21 mph    
Visibility 8 miles    
Events Fog , Rain    
T = Trace of Precipitation, MM = Missing Value Source: NWS Daily Summary

Daily Weather History Graph

Daily Weather History Graph

Search for Another Location

Airport or City:

Trip Planner

Search our weather history database for the weather conditions in past years. The results will help you decide how hot, cold, wet, or windy it might be!

Date:

Astronomy

Aug. 18, 2014 Rise Set
Actual Time 5:34 AM EDT 7:34 PM EDT
Civil Twilight 5:01 AM EDT 8:07 PM EDT
Nautical Twilight 4:21 AM EDT 8:47 PM EDT
Astronomical Twilight 3:37 AM EDT 9:30 PM EDT
Moon No Moon Rise 2:39 PM EDT (8/18)
Length of Visible Light 15h 05m
Length of Day
14h 00m
Last Quarter, 38% of the Moon is Illuminated
Aug 18
Last Quarter
Aug 25
New
Sep 2
First Quarter
Sep 8
Full
Sep 15
Last Quarter

Hourly Weather History & Observations

Time (EDT) Temp. Dew Point Humidity Pressure Visibility Wind Dir Wind Speed Gust Speed Precip Events Conditions
12:53 AM 55.9 °F 55.0 °F 97% 29.71 in 0.2 mi Calm Calm - N/A Fog Fog
1:53 AM 54.0 °F 54.0 °F 100% 29.70 in 0.2 mi SW 3.5 mph - N/A Fog Fog
2:53 AM 53.6 °F 53.6 °F 100% 29.69 in 0.5 mi Calm Calm - N/A Fog Fog
3:53 AM 55.0 °F 54.0 °F 96% 29.68 in 0.5 mi Calm Calm - N/A Fog Fog
4:33 AM 54.0 °F 54.0 °F 100% 29.68 in 1.5 mi Calm Calm - N/A   Overcast
4:36 AM 54.0 °F 54.0 °F 100% 29.68 in 3.0 mi Calm Calm - N/A   Overcast
4:53 AM 54.0 °F 53.1 °F 97% 29.69 in 7.0 mi Calm Calm - N/A   Overcast
5:10 AM 54.0 °F 54.0 °F 100% 29.68 in 1.8 mi Calm Calm - N/A   Overcast
5:19 AM 55.0 °F 54.0 °F 96% 29.69 in 0.8 mi Calm Calm - N/A   Mist
5:46 AM 55.0 °F 54.0 °F 96% 29.69 in 1.0 mi Calm Calm - N/A   Mist
5:53 AM 55.0 °F 54.0 °F 96% 29.70 in 1.5 mi Calm Calm - N/A   Overcast
6:11 AM 55.0 °F 54.0 °F 96% 29.70 in 3.0 mi Calm Calm - N/A   Overcast
6:20 AM 55.0 °F 54.0 °F 96% 29.70 in 4.0 mi Calm Calm - N/A   Overcast
6:53 AM 55.0 °F 54.0 °F 96% 29.71 in 8.0 mi Calm Calm - N/A   Overcast
7:17 AM 55.0 °F 54.0 °F 96% 29.71 in 10.0 mi NW 4.6 mph - N/A   Overcast
7:38 AM 55.0 °F 54.0 °F 96% 29.71 in 10.0 mi Calm Calm - N/A   Overcast
7:53 AM 55.9 °F 54.0 °F 93% 29.72 in 10.0 mi Calm Calm - N/A   Overcast
8:02 AM 55.9 °F 55.0 °F 97% 29.71 in 10.0 mi NNW 4.6 mph - N/A   Overcast
8:53 AM 57.9 °F 55.0 °F 90% 29.73 in 10.0 mi NNW 5.8 mph - N/A   Overcast
9:42 AM 61.0 °F 55.9 °F 83% 29.72 in 10.0 mi North 9.2 mph - N/A   Overcast
9:53 AM 62.1 °F 55.9 °F 80% 29.72 in 10.0 mi North 11.5 mph - N/A   Overcast
10:53 AM 62.1 °F 57.0 °F 84% 29.72 in 10.0 mi NW 11.5 mph - N/A   Overcast
11:07 AM 62.1 °F 57.0 °F 84% 29.72 in 10.0 mi NW 11.5 mph - N/A   Overcast
11:28 AM 63.0 °F 55.9 °F 78% 29.72 in 10.0 mi North 12.7 mph - N/A   Overcast
11:39 AM 63.0 °F 55.9 °F 78% 29.72 in 10.0 mi NNW 10.4 mph - 0.00 in Rain Light Rain
11:49 AM 64.4 °F 57.2 °F 77% 29.71 in 10.0 mi NNW 9.2 mph - 0.00 in   Overcast
11:53 AM 64.0 °F 55.9 °F 75% 29.71 in 10.0 mi NNW 11.5 mph - 0.00 in   Overcast
12:03 PM 66.0 °F 57.0 °F 73% 29.71 in 10.0 mi NW 10.4 mph - N/A   Overcast
12:22 PM 66.0 °F 55.9 °F 70% 29.71 in 10.0 mi WNW 9.2 mph - N/A   Mostly Cloudy
12:29 PM 66.9 °F 55.9 °F 68% 29.70 in 10.0 mi NNW 9.2 mph - N/A   Mostly Cloudy
12:53 PM 68.0 °F 55.9 °F 65% 29.70 in 10.0 mi NW 10.4 mph - N/A   Mostly Cloudy
1:53 PM 70.0 °F 55.0 °F 59% 29.69 in 10.0 mi NW 9.2 mph - N/A   Mostly Cloudy
2:53 PM 72.0 °F 54.0 °F 53% 29.69 in 10.0 mi NW 9.2 mph - N/A   Mostly Cloudy
3:53 PM 72.0 °F 53.1 °F 51% 29.69 in 10.0 mi NNW 12.7 mph 18.4 mph N/A   Overcast
4:53 PM 70.0 °F 54.0 °F 57% 29.70 in 10.0 mi North 11.5 mph - N/A   Overcast
5:53 PM 72.0 °F 55.0 °F 55% 29.70 in 10.0 mi North 11.5 mph - N/A   Overcast
6:53 PM 68.0 °F 55.0 °F 63% 29.72 in 10.0 mi NNW 5.8 mph - N/A   Mostly Cloudy
7:53 PM 64.9 °F 55.0 °F 70% 29.74 in 10.0 mi Calm Calm - N/A   Partly Cloudy
8:53 PM 59.0 °F 55.0 °F 87% 29.76 in 10.0 mi Calm Calm - N/A   Clear
9:53 PM 60.1 °F 54.0 °F 80% 29.76 in 10.0 mi NNW 3.5 mph - N/A   Clear
10:53 PM 57.9 °F 53.1 °F 84% 29.76 in 10.0 mi Calm Calm - N/A   Clear
11:53 PM 55.4 °F 53.6 °F 94% 29.77 in 10.0 mi WNW 3.5 mph - N/A   Clear